This is the latest recevied weather packets stored in our database for station/object F4WDE-10. If no packets are shown the sender has not sent any weather packets the latest 10 day(s).
| Time | Temp. | Humidity | Pressure | Rain* | Wind** | Luminosity | Snow |
|---|---|---|---|---|---|---|---|
| 1777625338 | 20° C | 48% | 970 hPa | - | - | - | - |
| 1777624436 | 18.89° C | 51% | 970 hPa | - | - | - | - |
| 1777623535 | 18.33° C | 52% | 970 hPa | - | - | - | - |
| 1777622634 | 18.33° C | 54% | 970 hPa | - | - | - | - |
| 1777621733 | 17.22° C | 57% | 969 hPa | - | - | - | - |
| 1777620832 | 16.67° C | 60% | 969 hPa | - | - | - | - |
| 1777619931 | 16.67° C | 63% | 969 hPa | - | - | - | - |
| 1777619030 | 16.11° C | 62% | 969 hPa | - | - | - | - |
| 1777618129 | 15.56° C | 62% | 969 hPa | - | - | - | - |
| 1777617228 | 15.56° C | 64% | 969 hPa | - | - | - | - |
| 1777616326 | 15.56° C | 64% | 969 hPa | - | - | - | - |
| 1777615425 | 15.56° C | 65% | 969 hPa | - | - | - | - |
| 1777614524 | 15° C | 68% | 969 hPa | - | - | - | - |
| 1777613623 | 15° C | 70% | 969 hPa | - | - | - | - |
| 1777612722 | 15° C | 71% | 969 hPa | - | - | - | - |
| 1777611821 | 15° C | 65% | 968 hPa | - | - | - | - |
| 1777610920 | 14.44° C | 64% | 968 hPa | - | - | - | - |
| 1777610019 | 14.44° C | 66% | 968 hPa | - | - | - | - |
| 1777609118 | 14.44° C | 65% | 968 hPa | - | - | - | - |
| 1777608216 | 14.44° C | 65% | 968 hPa | - | - | - | - |
| 1777607315 | 15° C | 62% | 968 hPa | - | - | - | - |
| 1777606414 | 15° C | 59% | 968 hPa | - | - | - | - |
| 1777605513 | 15° C | 62% | 968 hPa | - | - | - | - |
| 1777604612 | 15° C | 61% | 967 hPa | - | - | - | - |
| 1777603711 | 15° C | 60% | 967 hPa | - | - | - | - |
* Rain since midnight (hover to see other rain measurements)
** Current wind speed in m/s (hover to see current wind gust speed)